Préparation du vol

Réserver un ULM chez EFU                     Découvrir nos appareils                     Coordonnées de l'école

Available data for LFPN from the past hour

METAR
LFPN 191730Z AUTO 04013KT 9999 BKN024 BKN029 OVC034 05/M00 Q1009 NOSIG
TAF
TAF LFPN 191700Z 1918/2003 04010G20KT 9999 BKN020 BECMG 1921/1923 -SNRA BKN012 BECMG 1923/2001 -SN BKN006 TEMPO 2001/2003 1500 SN OVC002

Pour avoir des informations détaillée sur la météo à venir vous pouvez consulter Aeroweb

prevision des pluies

Nota : Heuro locale = heure CET

ATISATIS Étampes129.900
SOLÉtampes sol121.850
TWRÉtampes tour119.050
VDFÉtampes gonio119.050

OLIVIA

Outil en Ligne Intégré de Visualisation d'Informations Aéronautiques

OLIVIA